TimeEST,TemperatureF,Dew PointF,Humidity,Sea Level PressureIn,VisibilityMPH,Wind Direction,Wind SpeedMPH,Gust SpeedMPH,PrecipitationIn,Events,Conditions,WindDirDegrees,DateUTC
12:14 AM,32.2,26.4,79,30.15,10.0,ENE,3.5,-,N/A,,Clear,70,2012-11-08 05:14:00
12:34 AM,32.2,26.8,80,30.15,10.0,ENE,3.5,-,N/A,,Clear,70,2012-11-08 05:34:00
12:55 AM,31.6,26.4,81,30.15,10.0,East,4.6,-,N/A,,Clear,80,2012-11-08 05:55:00
1:14 AM,30.6,25.9,83,30.15,10.0,Calm,Calm,-,N/A,,Clear,0,2012-11-08 06:14:00
1:34 AM,29.3,26.1,88,30.15,10.0,Calm,Calm,-,N/A,,Clear,0,2012-11-08 06:34:00
1:54 AM,30.0,27.5,90,30.15,10.0,Calm,Calm,-,N/A,,Clear,0,2012-11-08 06:54:00
2:14 AM,30.0,27.5,90,30.15,10.0,Calm,Calm,-,N/A,,Clear,0,2012-11-08 07:14:00
2:35 AM,30.0,27.3,90,30.15,10.0,East,3.5,-,N/A,,Clear,80,2012-11-08 07:35:00
2:54 AM,30.4,27.5,89,30.15,10.0,ENE,3.5,-,N/A,,Clear,70,2012-11-08 07:54:00
3:14 AM,29.5,26.8,90,30.16,10.0,Calm,Calm,-,N/A,,Clear,0,2012-11-08 08:14:00
3:34 AM,29.8,28.0,93,30.16,7.0,Calm,Calm,-,N/A,,Clear,0,2012-11-08 08:34:00
3:54 AM,29.5,28.0,94,30.16,7.0,Calm,Calm,-,N/A,,Clear,0,2012-11-08 08:54:00
4:14 AM,28.8,27.9,96,30.17,5.0,Calm,Calm,-,N/A,,Mostly Cloudy,0,2012-11-08 09:14:00
4:33 AM,29.8,28.4,94,30.17,7.0,Calm,Calm,-,N/A,,Overcast,0,2012-11-08 09:33:00
4:54 AM,30.7,29.1,94,30.17,7.0,Calm,Calm,-,N/A,,Overcast,0,2012-11-08 09:54:00
5:14 AM,31.1,29.3,93,30.17,7.0,Calm,Calm,-,N/A,,Overcast,0,2012-11-08 10:14:00
5:35 AM,31.6,30.0,94,30.17,7.0,Calm,Calm,-,N/A,,Overcast,0,2012-11-08 10:35:00
5:54 AM,32.0,30.2,93,30.17,7.0,East,3.5,-,N/A,,Overcast,90,2012-11-08 10:54:00
6:14 AM,32.0,30.2,93,30.17,7.0,Calm,Calm,-,N/A,,Overcast,0,2012-11-08 11:14:00
6:34 AM,32.0,30.6,94,30.17,7.0,Calm,Calm,-,N/A,,Overcast,0,2012-11-08 11:34:00
6:54 AM,32.0,30.6,94,30.18,7.0,Calm,Calm,-,N/A,,Overcast,0,2012-11-08 11:54:00
7:15 AM,32.2,30.6,94,30.18,7.0,Calm,Calm,-,N/A,,Overcast,0,2012-11-08 12:15:00
7:54 AM,32.5,30.7,93,30.18,7.0,ESE,3.5,-,N/A,,Overcast,110,2012-11-08 12:54:00
8:14 AM,32.9,30.9,92,30.18,5.0,East,3.5,-,N/A,,Overcast,100,2012-11-08 13:14:00
8:35 AM,33.3,30.9,91,30.19,7.0,Calm,Calm,-,N/A,,Overcast,0,2012-11-08 13:35:00
8:54 AM,33.3,31.1,92,30.19,5.0,Calm,Calm,-,N/A,,Overcast,0,2012-11-08 13:54:00
9:14 AM,33.8,31.1,90,30.19,7.0,ESE,3.5,-,N/A,,Overcast,120,2012-11-08 14:14:00
9:35 AM,34.3,31.6,90,30.18,7.0,ESE,3.5,-,N/A,,Overcast,110,2012-11-08 14:35:00
9:54 AM,34.7,31.6,89,30.18,7.0,Calm,Calm,-,N/A,,Overcast,0,2012-11-08 14:54:00
10:14 AM,35.1,31.6,87,30.18,7.0,Calm,Calm,-,N/A,,Overcast,0,2012-11-08 15:14:00
10:34 AM,35.8,32.0,86,30.18,7.0,Calm,Calm,-,N/A,,Overcast,0,2012-11-08 15:34:00
10:54 AM,36.5,31.8,83,30.18,7.0,Calm,Calm,-,N/A,,Overcast,0,2012-11-08 15:54:00
11:34 AM,37.4,32.0,81,30.18,7.0,SE,4.6,-,N/A,,Overcast,130,2012-11-08 16:34:00
11:55 AM,38.3,32.0,78,30.18,10.0,Calm,Calm,-,N/A,,Overcast,0,2012-11-08 16:55:00
12:14 PM,38.8,32.0,76,30.16,10.0,Calm,Calm,-,N/A,,Overcast,0,2012-11-08 17:14:00
12:34 PM,39.6,32.0,74,30.16,10.0,Calm,Calm,-,N/A,,Overcast,0,2012-11-08 17:34:00
12:55 PM,40.1,32.0,73,30.15,10.0,SE,3.5,-,N/A,,Overcast,130,2012-11-08 17:55:00
1:14 PM,40.5,32.0,72,30.14,10.0,Calm,Calm,-,N/A,,Overcast,0,2012-11-08 18:14:00
1:34 PM,41.2,32.0,70,30.14,10.0,South,4.6,-,N/A,,Overcast,170,2012-11-08 18:34:00
1:54 PM,41.4,32.0,69,30.13,10.0,South,5.8,-,N/A,,Overcast,180,2012-11-08 18:54:00
2:15 PM,41.2,32.9,72,30.12,7.0,South,5.8,-,N/A,,Overcast,180,2012-11-08 19:15:00
2:34 PM,41.5,33.8,74,30.12,7.0,South,3.5,-,N/A,,Overcast,170,2012-11-08 19:34:00
2:54 PM,42.8,34.5,73,30.11,7.0,South,5.8,-,N/A,,Overcast,170,2012-11-08 19:54:00
3:15 PM,43.0,35.1,74,30.11,7.0,SSE,3.5,-,N/A,,Overcast,160,2012-11-08 20:15:00
3:34 PM,42.8,35.1,74,30.11,7.0,SSE,3.5,-,N/A,,Overcast,160,2012-11-08 20:34:00
3:54 PM,43.0,35.6,75,30.11,7.0,SSE,3.5,-,N/A,,Overcast,150,2012-11-08 20:54:00
4:14 PM,42.8,35.6,76,30.12,7.0,Calm,Calm,-,N/A,,Overcast,0,2012-11-08 21:14:00
4:34 PM,42.4,35.6,77,30.11,7.0,SSE,3.5,-,N/A,,Overcast,160,2012-11-08 21:34:00
4:55 PM,42.3,35.8,78,30.11,7.0,Calm,Calm,-,N/A,,Overcast,0,2012-11-08 21:55:00
5:14 PM,41.9,36.5,81,30.11,5.0,Calm,Calm,-,N/A,,Haze,0,2012-11-08 22:14:00
5:34 PM,41.9,36.5,81,30.11,7.0,SSE,3.5,-,N/A,,Overcast,150,2012-11-08 22:34:00
5:54 PM,41.9,36.1,80,30.10,7.0,SE,4.6,-,N/A,,Overcast,130,2012-11-08 22:54:00
6:15 PM,41.0,35.8,82,30.10,7.0,SE,3.5,-,N/A,,Mostly Cloudy,140,2012-11-08 23:15:00
6:34 PM,41.0,36.1,83,30.10,7.0,Calm,Calm,-,N/A,,Overcast,0,2012-11-08 23:34:00
6:54 PM,41.0,36.1,83,30.10,7.0,Calm,Calm,-,N/A,,Overcast,0,2012-11-08 23:54:00
7:14 PM,40.5,36.0,84,30.10,7.0,Calm,Calm,-,N/A,,Mostly Cloudy,0,2012-11-09 00:14:00
7:34 PM,40.1,36.0,85,30.10,5.0,SE,3.5,-,N/A,,Scattered Clouds,140,2012-11-09 00:34:00
7:54 PM,39.4,36.0,88,30.10,5.0,Calm,Calm,-,N/A,,Clear,0,2012-11-09 00:54:00
8:14 PM,39.6,36.5,89,30.10,5.0,SSE,3.5,-,N/A,,Clear,150,2012-11-09 01:14:00
8:35 PM,39.4,36.5,89,30.10,5.0,Calm,Calm,-,N/A,,Mostly Cloudy,0,2012-11-09 01:35:00
8:54 PM,40.3,36.9,88,30.10,5.0,SSE,3.5,-,N/A,,Overcast,160,2012-11-09 01:54:00
9:14 PM,40.3,36.7,87,30.10,5.0,SSE,3.5,-,N/A,,Overcast,150,2012-11-09 02:14:00
9:34 PM,40.5,36.5,86,30.09,7.0,South,4.6,-,N/A,,Overcast,170,2012-11-09 02:34:00
9:54 PM,40.3,36.3,86,30.10,7.0,South,3.5,-,N/A,,Overcast,170,2012-11-09 02:54:00
10:15 PM,39.2,36.0,88,30.09,5.0,SSE,3.5,-,N/A,,Mostly Cloudy,160,2012-11-09 03:15:00
10:34 PM,39.2,35.6,87,30.10,7.0,South,5.8,-,N/A,,Mostly Cloudy,170,2012-11-09 03:34:00
10:55 PM,40.1,35.6,84,30.10,7.0,South,4.6,-,N/A,,Overcast,170,2012-11-09 03:55:00
11:14 PM,39.9,35.2,83,30.10,7.0,South,3.5,-,N/A,,Overcast,190,2012-11-09 04:14:00
11:34 PM,40.1,35.2,83,30.10,10.0,Calm,Calm,-,N/A,,Overcast,0,2012-11-09 04:34:00
11:54 PM,39.4,35.6,86,30.09,7.0,South,3.5,-,N/A,,Overcast,180,2012-11-09 04:54:00